Погода в Кариесе

Греция     40°15′25″N   24°14′44″E
темп.,
°C
ветер,
м/с
пор.,
м/с
влажн.,
%
обл.,
%
осадки,
мм/ч
давл.,
гПа
погр.,
м
28 сентября, вт
вт2800:00+22всв22633 0.0 101785
03:00+22всв33665 0.0 1016284
06:00+21всв776757 0.0 1017472
09:00+21всв897090 0.0 1017685
12:00+20в887389 0.0 1018711
15:00+21в7670100 0.0 1017619
18:00+22в3562100 0.0 1017412
21:00+22ссв2361100 0.0 1018187
29 сентября, ср
ср2900:00+21св566797 0.1 1019942
03:00+20в9968100 0.1 1019845
06:00+20в886561 0.1 1020954
09:00+19всв9106798 0.1 1020994
12:00+19всв896831 0.0 1021930
15:00+20в796294 0.0 10201131
18:00+21св4758100 0.0 10201003
21:00+21св6863100 0.0 10211303
30 сентября, чт
чт3000:00+19всв111162100 0.0 10221156
03:00+19всв101259100 0.0 10221142
06:00+19св10116393 0.0 10221052
09:00+18св10126613 0.0 10231011
12:00+19всв1011625 0.0 10241052
15:00+20св810515 0.0 10231445
18:00+20св895664 0.0 10221228
21:00+20св895343 0.0 10231461
1 октября, пт
пт100:00+19всв11116171 0.0 10241212
03:00+18св1011615 0.0 10241141
06:00+18св1213655 0.0 10241121
09:00+18св131458100 0.0 10251246
12:00+18св111254100 0.0 10251162
15:00+19св1112506 0.0 10241715
18:00+20всв1112543 0.0 10231425
21:00+19св13145511 0.0 10241441
2 октября, сб
сб200:00+18всв1315575 0.0 10231270
03:00+18св1214586 0.0 10231257
06:00+17св11126031 0.0 10221379
09:00+17св10115994 0.0 10221396
12:00+18св9105498 0.0 10221704
15:00+19св895341 0.0 10211472
18:00+19св98585 0.0 1021888
21:00+19св88540 0.0 10211144